EW3976 Weather Reports


time (UTC)temp
F
wind
direction
speed
knots
gust
knots
rain 1hr
in
rain 24hr
in
rain mn
in
humidity
%
barometer
mb
20260507022516 66 0 6.1 7.8 0.00 0.00 0.00 75 1018.1
20260507021516 66 0 4.3 6.1 0.00 0.00 0.00 74 1018.1
20260507020516 67 0 6.1 10.4 0.00 0.00 0.00 72 1018.0
20260507015516 67 0 6.1 10.4 0.00 0.00 0.00 71 1018.0
20260507014516 68 23 5.2 7.8 0.00 0.00 0.00 69 1018.0
20260507013517 69 0 6.1 12.2 0.00 0.00 0.00 68 1018.0
20260507012516 69 23 7.0 8.7 0.00 0.00 0.00 66 1017.8
20260507011515 70 0 7.0 11.3 0.00 0.00 0.00 65 1017.8
20260507010516 70 338 4.3 9.6 0.00 0.00 0.00 65 1017.8
20260507005517 71 315 7.8 11.3 0.00 0.00 0.00 64 1017.8
20260507004556 71 338 7.0 9.6 0.00 0.00 0.00 63 1017.8
20260507003516 71 338 7.0 11.3 0.00 0.00 0.00 63 1017.8
20260507002516 72 0 8.7 13.0 0.00 0.00 0.00 61 1017.7
20260507001516 72 338 4.3 7.0 0.00 0.00 0.00 62 1017.8
20260507000515 72 45 5.2 8.7 0.00 0.00 0.00 62 1017.7
20260506235516 72 0 5.2 7.8 0.00 0.00 0.00 61 1017.7
20260506233515 72 315 5.2 7.0 0.00 0.00 0.00 60 1017.8
20260506232515 72 45 4.3 7.0 0.00 0.00 0.00 62 1017.8
20260506231516 72 338 4.3 7.0 0.00 0.00 0.00 62 1017.8
20260506230516 72 0 6.1 10.4 0.00 0.00 0.00 61 1018.0
20260506225516 73 0 6.1 8.7 0.00 0.00 0.00 60 1018.1
20260506224515 73 0 7.0 9.6 0.00 0.00 0.00 59 1018.1
20260506223516 73 0 6.1 9.6 0.00 0.00 0.00 59 1018.2
20260506222516 74 315 5.2 6.1 0.00 0.00 0.00 58 1018.3
20260506221516 74 315 6.1 7.8 0.00 0.00 0.00 58 1018.3
20260506220555 73 315 4.3 6.1 0.00 0.00 0.00 58 1018.5
20260506215515 74 338 3.5 7.0 0.00 0.00 0.00 57 1018.6
20260506214515 73 315 1.7 3.5 0.00 0.00 0.00 59 1018.8
20260506213515 72 225 0.9 1.7 0.00 0.00 0.00 59 1018.8
20260506212515 72 338 2.6 4.3 0.00 0.00 0.00 60 1019.1
20260506211515 71 293 7.0 9.6 0.00 0.00 0.00 60 1019.1
20260506210516 71 45 5.2 7.8 0.00 0.00 0.00 61 1019.3
20260506205557 71 338 4.3 7.8 0.00 0.00 0.00 61 1019.3
20260506204516 70 315 3.5 5.2 0.00 0.00 0.00 62 1019.4
20260506203516 70 315 5.2 7.0 0.00 0.00 0.00 62 1019.6
20260506202515 69 0 3.5 6.1 0.00 0.00 0.00 62 1019.7
20260506201515 70 0 5.2 7.0 0.00 0.00 0.00 62 1019.9
20260506200515 69 315 3.5 5.2 0.00 0.00 0.00 65 1019.9
20260506195515 69 0 4.3 7.0 0.00 0.00 0.00 64 1019.9
20260506194555 68 68 4.3 11.3 0.00 0.00 0.00 65 1020.1
20260506193555 67 293 3.5 5.2 0.00 0.00 0.00 66 1020.1
20260506192555 68 338 3.5 5.2 0.00 0.00 0.00 66 1020.3
20260506191515 67 315 1.7 4.3 0.00 0.00 0.00 68 1020.3
20260506190517 67 23 3.5 5.2 0.00 0.00 0.00 68 1020.4
20260506185555 65 23 2.6 5.2 0.00 0.00 0.00 69 1020.4
20260506184515 66 113 3.5 6.1 0.00 0.00 0.00 69 1020.6
20260506183515 65 0 2.6 3.5 0.00 0.00 0.00 69 1020.7
20260506182515 65 0 2.6 5.2 0.00 0.00 0.00 72 1020.7
20260506181516 63 293 3.5 6.1 0.00 0.00 0.00 72 1020.8
20260506180516 63 135 0.9 1.7 0.00 0.00 0.00 72 1020.8
20260506175515 63 315 5.2 8.7 0.00 0.00 0.00 73 1020.8
20260506174515 62 270 3.5 5.2 0.00 0.00 0.00 74 1020.8
20260506173518 62 270 2.6 4.3 0.00 0.00 0.00 73 1020.8
20260506172515 62 0 1.7 3.5 0.00 0.00 0.00 76 1020.9
20260506171516 62 45 2.6 6.1 0.00 0.00 0.00 76 1020.9
20260506170555 61 293 2.6 4.3 0.00 0.00 0.00 77 1021.0
20260506165515 60 293 1.7 2.6 0.00 0.00 0.00 78 1021.0
20260506164519 60 315 2.6 4.3 0.00 0.00 0.00 78 1021.0
20260506163515 60 293 2.6 3.5 0.00 0.00 0.00 78 1021.0
20260506162515 60 293 3.5 4.3 0.00 0.00 0.00 78 1021.1
20260506161516 60 293 3.5 5.2 0.00 0.00 0.00 78 1021.0
20260506160515 60 338 4.3 5.2 0.00 0.00 0.00 79 1021.0
20260506155515 60 315 2.6 4.3 0.00 0.00 0.00 80 1021.0
20260506154517 59 0 2.6 4.3 0.00 0.00 0.00 81 1021.0
20260506153517 58 338 1.7 2.6 0.00 0.00 0.00 82 1021.0
20260506152515 58 315 1.7 3.5 0.00 0.00 0.00 82 1021.0
20260506151517 58 315 1.7 3.5 0.00 0.00 0.00 83 1021.0
20260506150515 58 293 0.9 1.7 0.00 0.00 0.00 83 1021.0
20260506145515 57 293 2.6 3.5 0.00 0.00 0.00 83 1021.0
20260506144515 57 315 1.7 3.5 0.00 0.00 0.00 84 1021.0
20260506143515 57 338 1.7 2.6 0.00 0.00 0.00 84 1020.9
20260506142515 57 315 3.5 4.3 0.00 0.00 0.00 83 1020.9
20260506141517 57 0.0 0.9 0.00 0.00 0.00 84 1020.9
20260506140517 57 293 1.7 2.6 0.00 0.00 0.00 84 1020.8
20260506135519 57 315 0.9 2.6 0.00 0.00 0.00 84 1020.6
20260506134520 57 315 1.7 2.6 0.00 0.00 0.00 84 1020.4
20260506133517 57 293 1.7 2.6 0.00 0.00 0.00 84 1020.2
20260506132517 57 315 2.6 3.5 0.00 0.00 0.00 84 1020.1
20260506131517 57 315 1.7 3.5 0.00 0.00 0.00 84 1020.1
20260506130520 57 315 2.6 3.5 0.00 0.00 0.00 84 1020.0
20260506125557 57 315 1.7 2.6 0.00 0.00 0.00 83 1019.9
20260506124516 57 338 0.9 0.9 0.00 0.00 0.00 83 1019.8
20260506123517 57 338 0.9 1.7 0.00 0.00 0.00 83 1019.9
20260506122517 57 338 0.9 1.7 0.00 0.00 0.00 83 1019.8
20260506121558 57 23 1.7 2.6 0.00 0.00 0.00 83 1019.8
20260506120517 57 0 1.7 1.7 0.00 0.00 0.00 83 1019.8
20260506115517 57 0 0.9 1.7 0.00 0.00 0.00 83 1019.7
20260506114517 57 338 1.7 3.5 0.00 0.00 0.00 83 1019.6
20260506113516 57 338 0.9 0.9 0.00 0.00 0.00 83 1019.6
20260506112517 57 338 1.7 1.7 0.00 0.00 0.00 83 1019.5
20260506111600 57 0.0 0.0 0.00 0.00 0.00 83 1019.5
20260506110517 57 0.0 0.0 0.00 0.00 0.00 83 1019.4
20260506105517 57 293 0.9 0.9 0.00 0.00 0.00 83 1019.4
20260506104557 57 0.0 0.9 0.00 0.00 0.00 83 1019.3
20260506103516 57 293 0.9 1.7 0.00 0.00 0.00 83 1019.3
20260506102516 57 0.0 0.0 0.00 0.00 0.00 83 1019.3
20260506101517 57 293 1.7 1.7 0.00 0.00 0.00 83 1019.3
20260506100517 57 0.0 0.0 0.00 0.00 0.00 83 1019.3
20260506095517 57 270 0.9 1.7 0.00 0.00 0.00 83 1019.3
20260506094517 57 293 1.7 2.6 0.00 0.00 0.00 83 1019.3
20260506093517 57 0.0 0.9 0.00 0.00 0.00 83 1019.3
20260506092516 58 338 0.9 0.9 0.00 0.00 0.00 83 1019.4
20260506091502 57 315 2.6 3.5 0.00 0.00 0.00 83 1019.4
20260506090557 57 315 2.6 3.5 0.00 0.00 0.00 83 1019.3
20260506085556 58 338 2.6 4.3 0.00 0.00 0.00 83 1019.2
20260506084517 58 293 2.6 4.3 0.00 0.00 0.00 83 1019.3
20260506083517 58 0 1.7 3.5 0.00 0.00 0.00 83 1019.3
20260506082556 58 315 1.7 3.5 0.00 0.00 0.00 82 1019.3
20260506081517 58 0 1.7 1.7 0.00 0.00 0.00 82 1019.4
20260506080517 58 338 0.9 2.6 0.00 0.00 0.00 82 1019.3
20260506073516 58 0 1.7 1.7 0.00 0.00 0.00 82 1019.1
20260506072556 58 338 2.6 3.5 0.00 0.00 0.00 81 1019.1
20260506071516 58 338 3.5 5.2 0.00 0.00 0.00 81 1019.0
20260506070516 58 338 0.9 0.9 0.00 0.00 0.00 81 1018.9
20260506062516 58 338 2.6 4.3 0.00 0.00 0.00 79 1018.6
20260506061516 59 315 2.6 3.5 0.00 0.00 0.00 79 1018.5
20260506060516 59 0 1.7 3.5 0.00 0.00 0.00 80 1018.4
20260506050556 60 0 0.9 2.6 0.00 0.00 0.00 76 1018.0
20260506044516 60 315 1.7 3.5 0.00 0.00 0.00 74 1017.9
20260506043516 60 338 1.7 3.5 0.00 0.00 0.00 74 1017.8
20260506042556 60 23 0.9 1.7 0.00 0.00 0.00 74 1017.8
20260506041516 60 338 1.7 2.6 0.00 0.00 0.00 75 1017.6
20260506040516 60 23 0.9 1.7 0.00 0.00 0.00 75 1017.4
20260506035516 60 338 1.7 2.6 0.00 0.00 0.00 75 1017.4
20260506034516 60 0 2.6 3.5 0.00 0.00 0.00 75 1017.1
20260506033516 60 0.0 0.0 0.00 0.00 0.00 75 1017.0
20260506032516 60 0.0 0.0 0.00 0.00 0.00 75 1016.8
20260506031516 60 0.0 0.0 0.00 0.00 0.00 74 1016.8
20260506030516 60 0.0 1.7 0.00 0.00 0.00 74 1016.7
20260506025516 60 0.0 0.9 0.00 0.00 0.00 75 1016.6
20260506024516 61 293 0.9 1.7 0.00 0.00 0.00 74 1016.4
20260506023556 61 0.0 0.9 0.00 0.00 0.00 74 1016.2